Date,TemperatureHighF,TemperatureAvgF,TemperatureLowF,DewpointHighF,DewpointAvgF,DewpointLowF,HumidityHigh,HumidityAvg,HumidityLow,PressureMaxIn,PressureMinIn,WindSpeedMaxMPH,WindSpeedAvgMPH,GustSpeedMaxMPH,PrecipitationSumIn
2013-8-1,87,82,77,78,75,73,89,80,72,30.02,29.93,14,1,14,1.61
2013-8-2,95,86,78,79,76,74,87,74,58,30.07,29.98,24,5,24,0.14
2013-8-3,95,88,82,81,78,75,80,72,63,30.08,29.97,23,6,23,0.14
2013-8-4,95,89,84,80,78,76,80,70,60,30.06,29.92,20,7,20,0.14
2013-8-5,95,86,80,78,76,71,83,71,57,30.00,29.89,16,4,16,0.29
2013-8-6,93,85,79,78,75,72,82,72,60,29.96,29.87,21,4,21,0.24
2013-8-7,95,86,78,79,76,73,86,73,57,29.95,29.86,18,4,18,0.53
2013-8-8,96,87,80,79,76,74,83,70,55,29.93,29.84,20,5,20,0.00
2013-8-9,92,84,79,80,76,57,85,76,43,29.96,29.86,19,4,19,1.02
2013-8-10,94,87,80,79,77,74,85,73,59,29.99,29.89,22,4,22,0.06
2013-8-11,92,86,78,78,75,69,79,70,54,30.00,29.90,19,4,19,0.33
2013-8-12,92,84,78,78,74,71,80,72,56,30.00,29.90,20,2,20,0.14
2013-8-13,96,86,80,78,75,73,80,70,50,30.00,29.91,21,4,21,0.00
2013-8-14,97,89,82,80,76,74,80,68,56,30.01,29.91,22,4,22,0.14
2013-8-15,96,88,82,79,76,74,78,68,57,30.00,29.91,19,6,19,0.14
2013-8-16,91,85,80,79,76,72,82,74,66,29.96,29.87,17,4,17,0.20
2013-8-17,95,87,80,79,76,74,82,71,59,29.97,29.87,19,5,19,0.14
2013-8-18,134,86,80,100,76,41,87,72,22,29.98,29.90,18,4,18,0.31
2013-8-19,94,86,80,80,77,73,83,74,64,29.95,29.84,19,4,19,0.14
2013-8-20,93,84,80,78,76,73,84,76,57,30.00,29.85,24,3,24,0.33
2013-8-21,96,86,77,80,76,43,85,74,55,29.99,29.92,20,3,20,0.14
2013-8-22,90,84,81,78,75,39,85,75,22,29.98,29.89,13,2,13,1.22
2013-8-23,90,84,80,80,77,71,88,80,66,29.96,29.88,17,2,17,0.08
2013-8-24,95,86,-12,80,76,-16,84,72,59,30.02,29.92,18,5,18,0.00
2013-8-25,94,87,83,78,76,73,77,70,59,30.02,29.93,22,6,22,0.00
2013-8-26,92,85,80,79,77,74,83,76,64,29.96,29.86,21,4,21,0.12
2013-8-27,97,87,80,79,76,74,85,71,53,29.97,29.86,20,4,20,0.24
2013-8-28,96,87,81,80,76,57,79,70,43,30.01,29.91,22,4,22,0.08
2013-8-29,92,85,81,79,76,73,82,75,62,29.99,29.90,22,2,22,0.12
2013-8-30,97,86,80,80,76,74,83,73,51,29.99,29.89,15,2,15,0.00
2013-8-31,94,87,82,80,77,44,80,73,22,29.98,29.88,18,4,18,0.00